Voltar ao catálogo

STARLINK-31775

AtivoComunicaçõesVLEO
NORAD 60052·PAYLOAD·🇺🇸 United States

Lançado Jun 8, 2024 de Vandenberg Space Force Base

Loading…

Próximas Passagens (próximas 24 horas)

TLE

AtualizadoSource: CelesTrak SupGP

Época: Sep 14, 2026, 22:07 UTC

1 60052C 24112Q   26257.92201389  .00049139  00000+0  14516-2 0  2570
2 60052  53.1560 277.6025 0001023  80.1753 117.1778 15.34369874    17

Acompanhe STARLINK-31775 em tempo real com AllMySat

Download on the App Store